Weather History for Harlan, KY

Change the Weather History Date:

Tuesday, January 8, 2013

  Actual Average (KLOZ) Record (KLOZ)
Temperature  
Mean Temperature 42 °F 35 °F  
Max Temperature 55 °F 44 °F 69 °F (2008)
Min Temperature 28 °F 26 °F -3 °F (1970)
Degree Days  
Heating Degree Days 24 30  
Month to date heating degree days 236  
Since 1 July heating degree days 1888  
Cooling Degree Days 0 0  
Month to date cooling degree days 0  
Year to date cooling degree days 0  
Moisture  
Dew Point 30 °F    
Average Humidity 72    
Maximum Humidity 93    
Minimum Humidity 41    
Precipitation  
Precipitation 0.00 in 0.11 in 1.40 in (1999)
Month to date precipitation 0.92  
Year to date precipitation 0.92  
Sea Level Pressure  
Sea Level Pressure 30.31 in    
Wind  
Wind Speed 2 mph (ESE)    
Max Wind Speed 7 mph    
Max Gust Speed -    
Visibility 10 miles    
Events      
T = Trace of Precipitation, MM = Missing Value Source: NWS Daily Summary

Daily Weather History Graph

Daily Weather History Graph

Search for Another Location

Airport:

Trip Planner

Search our weather history database for the weather conditions in past years. The results will help you decide how hot, cold, wet, or windy it might be!

Date:

Astronomy

Jan. 08, 2013 Rise Set
Actual Time 7:46 AM EST 5:34 PM EST
Civil Twilight 7:18 AM EST 6:02 PM EST
Nautical Twilight 6:45 AM EST 6:34 PM EST
Astronomical Twilight 6:14 AM EST 7:06 PM EST
Moon 4:18 AM EST (1/8) 2:35 PM EST (1/8)
Length of Visible Light 10h 44m
Length of Day
9h 47m
Waning Crescent, 14% of the Moon is Illuminated
Jan 8
Waning Crescent
Jan 11
New
Jan 18
First Quarter
Jan 26
Full
Feb 3
Last Quarter

Hourly Weather History & Observations

Time (EST) Temp. Windchill Dew Point Humidity Pressure Visibility Wind Dir Wind Speed Gust Speed Precip Events Conditions
12:15 AM 30.2 °F 26.7 °F 28.4 °F 93% 30.29 in 10.0 mi ESE 3.5 mph - N/A   Clear
12:35 AM 30.2 °F - 26.6 °F 86% 30.28 in 10.0 mi Calm Calm - N/A   Clear
12:55 AM 30.2 °F - 26.6 °F 86% 30.29 in 10.0 mi Calm Calm - N/A   Clear
1:15 AM 28.4 °F - 26.6 °F 93% 30.28 in 7.0 mi Calm Calm - N/A   Clear
1:35 AM 30.2 °F 26.7 °F 26.6 °F 86% 30.28 in 10.0 mi ESE 3.5 mph - N/A   Clear
1:55 AM 28.4 °F - 26.6 °F 93% 30.29 in 10.0 mi Calm Calm - N/A   Clear
2:15 AM 28.4 °F 24.6 °F 26.6 °F 93% 30.29 in 10.0 mi SSE 3.5 mph - N/A   Clear
2:35 AM 28.4 °F - 26.6 °F 93% 30.30 in 10.0 mi Calm Calm - N/A   Clear
2:55 AM 28.4 °F 24.6 °F 26.6 °F 93% 30.29 in 10.0 mi East 3.5 mph - N/A   Clear
3:15 AM 32.0 °F 28.7 °F 26.6 °F 80% 30.28 in 10.0 mi ESE 3.5 mph - N/A   Clear
3:35 AM 33.8 °F 29.6 °F 26.6 °F 75% 30.28 in 10.0 mi NE 4.6 mph - N/A   Clear
3:55 AM 32.0 °F - 26.6 °F 80% 30.29 in 10.0 mi Calm Calm - N/A   Clear
4:15 AM 30.2 °F - 26.6 °F 86% 30.29 in 10.0 mi Calm Calm - N/A   Clear
4:35 AM 30.2 °F - 26.6 °F 86% 30.29 in 10.0 mi Calm Calm - N/A   Clear
4:55 AM 28.4 °F 24.6 °F 26.6 °F 93% 30.29 in 10.0 mi East 3.5 mph - N/A   Clear
5:15 AM 28.4 °F - 26.6 °F 93% 30.29 in 10.0 mi Calm Calm - N/A   Clear
5:35 AM 28.4 °F - 26.6 °F 93% 30.29 in 10.0 mi Calm Calm - N/A   Clear
5:55 AM 28.4 °F - 26.6 °F 93% 30.29 in 10.0 mi Calm Calm - N/A   Clear
6:15 AM 28.4 °F - 26.6 °F 93% 30.30 in 10.0 mi Calm Calm - N/A   Clear
6:35 AM 28.4 °F - 26.6 °F 93% 30.31 in 10.0 mi Calm Calm - N/A   Clear
6:55 AM 28.4 °F - 26.6 °F 93% 30.31 in 10.0 mi Calm Calm - N/A   Clear
7:15 AM 28.4 °F - 26.6 °F 93% 30.33 in 10.0 mi Calm Calm - N/A   Clear
7:55 AM 28.4 °F 24.6 °F 26.6 °F 93% 30.35 in 10.0 mi South 3.5 mph - N/A   Clear
8:15 AM 28.4 °F - 26.6 °F 93% 30.36 in 10.0 mi Calm Calm - N/A   Clear
8:35 AM 28.4 °F - 26.6 °F 93% 30.37 in 7.0 mi Calm Calm - N/A   Clear
8:55 AM 28.4 °F - 26.6 °F 93% 30.38 in 7.0 mi Calm Calm - N/A   Clear
9:15 AM 28.4 °F 24.6 °F 26.6 °F 93% 30.38 in 5.0 mi East 3.5 mph - N/A   Clear
9:35 AM 30.2 °F 25.4 °F 28.4 °F 93% 30.39 in 7.0 mi East 4.6 mph - N/A   Clear
9:55 AM 32.0 °F - 28.4 °F 87% 30.39 in 10.0 mi Calm Calm - N/A   Clear
10:35 AM 33.8 °F 29.6 °F 30.2 °F 87% 30.39 in 10.0 mi East 4.6 mph - N/A   Clear
10:55 AM 35.6 °F - 32.0 °F 87% 30.39 in 10.0 mi Calm Calm - N/A   Clear
11:15 AM 39.2 °F - 30.2 °F 70% 30.38 in 10.0 mi Calm Calm - N/A   Clear
11:35 AM 42.8 °F - 30.2 °F 61% 30.37 in 10.0 mi Calm Calm - N/A   Clear
11:55 AM 44.6 °F - 30.2 °F 57% 30.36 in 10.0 mi Calm Calm - N/A   Clear
12:15 PM 46.4 °F 44.3 °F 28.4 °F 50% 30.35 in 10.0 mi East 4.6 mph - N/A   Clear
12:35 PM 50.0 °F - 28.4 °F 43% 30.33 in 10.0 mi Calm Calm - N/A   Clear
12:55 PM 50.0 °F - 28.4 °F 43% 30.32 in 10.0 mi SE 3.5 mph - N/A   Clear
1:15 PM 50.0 °F - 28.4 °F 43% 30.31 in 10.0 mi Calm Calm - N/A   Clear
1:35 PM 51.8 °F - 30.2 °F 44% 30.30 in 10.0 mi Calm Calm - N/A   Clear
1:55 PM 53.6 °F - 30.2 °F 41% 30.30 in 10.0 mi Calm Calm - N/A   Clear
2:15 PM 53.6 °F - 33.8 °F 47% 30.30 in 10.0 mi WSW 4.6 mph - N/A   Scattered Clouds
2:55 PM 55.4 °F - 35.6 °F 47% 30.29 in 10.0 mi WSW 4.6 mph - N/A   Scattered Clouds
3:15 PM 55.4 °F - 35.6 °F 47% 30.30 in 10.0 mi SW 6.9 mph - N/A   Clear
3:35 PM 55.4 °F - 33.8 °F 44% 30.30 in 10.0 mi SSE 6.9 mph - N/A   Clear
3:55 PM 55.4 °F - 35.6 °F 47% 30.30 in 10.0 mi SSW 5.8 mph - N/A   Clear
4:15 PM 53.6 °F - 35.6 °F 51% 30.29 in 10.0 mi SSE 4.6 mph - N/A   Clear
4:35 PM 53.6 °F - 33.8 °F 47% 30.28 in 10.0 mi ESE 5.8 mph - N/A   Clear
4:55 PM 53.6 °F - 33.8 °F 47% 30.29 in 10.0 mi SSE 5.8 mph - N/A   Clear
5:15 PM 51.8 °F - 33.8 °F 50% 30.29 in 10.0 mi SSE 5.8 mph - N/A   Clear
5:35 PM 50.0 °F - 33.8 °F 54% 30.28 in 10.0 mi SSE 3.5 mph - N/A   Clear
5:55 PM 50.0 °F - 33.8 °F 54% 30.28 in 10.0 mi SE 5.8 mph - N/A   Clear
6:15 PM 48.2 °F - 33.8 °F 58% 30.28 in 10.0 mi Calm Calm - N/A   Clear
6:35 PM 48.2 °F - 33.8 °F 58% 30.28 in 10.0 mi SSE 3.5 mph - N/A   Clear
6:55 PM 46.4 °F - 33.8 °F 62% 30.29 in 10.0 mi Calm Calm - N/A   Clear
7:15 PM 46.4 °F - 33.8 °F 62% 30.29 in 10.0 mi Calm Calm - N/A   Clear
7:35 PM 44.6 °F - 33.8 °F 66% 30.29 in 10.0 mi Calm Calm - N/A   Clear
7:55 PM 42.8 °F - 33.8 °F 70% 30.30 in 10.0 mi Calm Calm - N/A   Clear
8:15 PM 42.8 °F - 33.8 °F 70% 30.30 in 10.0 mi Calm Calm - N/A   Clear
8:35 PM 42.8 °F - 33.8 °F 70% 30.29 in 10.0 mi Calm Calm - N/A   Clear
8:55 PM 42.8 °F - 33.8 °F 70% 30.29 in 10.0 mi Calm Calm - N/A   Clear
9:15 PM 41.0 °F - 33.8 °F 76% 30.29 in 10.0 mi Calm Calm - N/A   Clear
9:35 PM 39.2 °F - 33.8 °F 81% 30.29 in 10.0 mi Calm Calm - N/A   Clear
9:55 PM 41.0 °F 38.0 °F 32.0 °F 70% 30.30 in 10.0 mi ENE 4.6 mph - N/A   Clear
10:15 PM 42.8 °F 41.1 °F 32.0 °F 66% 30.30 in 10.0 mi East 3.5 mph - N/A   Clear
10:35 PM 42.8 °F 39.3 °F 32.0 °F 66% 30.30 in 10.0 mi East 5.8 mph - N/A   Clear
11:15 PM 42.8 °F 41.1 °F 32.0 °F 66% 30.30 in 10.0 mi East 3.5 mph - N/A   Clear
11:35 PM 41.0 °F 39.0 °F 32.0 °F 70% 30.29 in 10.0 mi East 3.5 mph - N/A   Clear